FW0073 Weather Reports


time (UTC)temp
C
wind
direction
speed
KPH
gust
KPH
rain 1hr
cm
rain 24hr
cm
rain mn
cm
humidity
%
barometer
mb
20190919150017 25 225 11.3 29.0 0.00 0.00 0.00 62 1015.9
20190919144517 26 248 9.7 19.3 0.00 0.00 0.00 60 1015.7
20190919143017 27 248 8.0 17.7 0.00 0.00 0.00 58 1015.6
20190919141517 27 225 8.0 19.3 0.00 0.00 0.00 56 1015.6
20190919140017 27 225 6.4 16.1 0.00 0.00 0.00 55 1015.6
20190919134517 27 248 6.4 17.7 0.00 0.00 0.00 55 1015.8
20190919133017 28 225 6.4 14.5 0.00 0.00 0.00 55 1015.9
20190919131517 28 180 4.8 14.5 0.00 0.00 0.00 56 1015.9
20190919130017 27 180 4.8 11.3 0.00 0.00 0.00 55 1016.1
20190919124518 27 248 1.6 9.7 0.00 0.00 0.00 58 1016.2
20190919123017 26 180 3.2 9.7 0.00 0.00 0.00 60 1016.4
20190919121517 25 248 3.2 11.3 0.00 0.00 0.00 64 1016.6
20190919120017 25 248 3.2 8.0 0.00 0.00 0.00 65 1016.8
20190919114517 23 248 3.2 11.3 0.00 0.00 0.00 67 1017.0
20190919113017 22 270 1.6 6.4 0.00 0.00 0.00 71 1017.3
20190919111517 22 270 3.2 6.4 0.00 0.00 0.00 73 1017.4
20190919110017 21 270 1.6 6.4 0.00 0.00 0.00 77 1017.7
20190919104518 20 0.0 4.8 0.00 0.00 0.00 79 1018.0
20190919103017 18 0.0 3.2 0.00 0.00 0.00 82 1018.2
20190919101519 18 248 1.6 6.4 0.00 0.00 0.00 84 1018.4
20190919100017 17 0.0 6.4 0.00 0.00 0.00 85 1018.5
20190919094517 17 0.0 3.2 0.00 0.00 0.00 86 1018.7
20190919093017 16 0.0 6.4 0.00 0.00 0.00 87 1018.7
20190919091517 16 0.0 6.4 0.00 0.00 0.00 88 1018.8
20190919090020 16 0.0 4.8 0.00 0.00 0.00 88 1018.6
20190919084519 16 0.0 4.8 0.00 0.00 0.00 89 1018.5
20190919083019 16 0.0 4.8 0.00 0.00 0.00 89 1018.6
20190919081519 15 0.0 1.6 0.00 0.00 0.00 89 1018.4
20190919080019 15 0.0 0.0 0.00 0.00 0.00 89 1018.4
20190919074519 15 0.0 0.0 0.00 0.00 0.00 89 1018.4
20190919073019 15 0.0 0.0 0.00 0.00 0.00 89 1018.3
20190919071519 15 0.0 0.0 0.00 0.00 0.00 89 1018.3
20190919070020 15 0.0 3.2 0.00 0.00 0.00 89 1018.3
20190919064519 15 0.0 1.6 0.00 0.00 0.00 89 1018.2
20190919063020 15 0.0 1.6 0.00 0.00 0.00 89 1018.1
20190919061520 15 0.0 1.6 0.00 0.00 0.00 89 1018.0
20190919060019 15 0.0 0.0 0.00 0.00 0.00 89 1017.9
20190919054519 15 0.0 1.6 0.00 0.00 0.00 89 1017.7
20190919053019 15 0.0 0.0 0.00 0.00 0.00 89 1017.7
20190919051523 15 0.0 0.0 0.00 0.00 0.00 89 1017.7
20190919050022 15 0.0 0.0 0.00 0.00 0.00 89 1017.8
20190919044520 15 0.0 1.6 0.00 0.00 0.00 88 1017.9
20190919043019 15 0.0 3.2 0.00 0.00 0.00 88 1017.8
20190919041520 15 0.0 0.0 0.00 0.00 0.00 88 1017.8
20190919040020 15 0.0 0.0 0.00 0.00 0.00 88 1017.9
20190919034519 15 0.0 1.6 0.00 0.00 0.00 88 1017.9
20190919033019 15 0.0 0.0 0.00 0.00 0.00 88 1018.0
20190919031520 15 0.0 0.0 0.00 0.00 0.00 88 1018.0
20190919030019 15 0.0 0.0 0.00 0.00 0.00 88 1018.1
20190919024519 15 0.0 0.0 0.00 0.00 0.00 88 1018.1
20190919023019 15 0.0 0.0 0.00 0.00 0.00 88 1018.2
20190919021522 15 0.0 0.0 0.00 0.00 0.00 88 1018.3
20190919020020 15 0.0 0.0 0.00 0.00 0.00 88 1018.4
20190919014519 15 0.0 0.0 0.00 0.00 0.00 88 1018.6
20190919013019 15 0.0 0.0 0.00 0.00 0.00 88 1018.5
20190919011519 15 0.0 1.6 0.00 0.00 0.00 87 1018.6
20190919010018 15 0.0 6.4 0.00 0.00 0.00 87 1018.7
20190919004519 15 0.0 1.6 0.00 0.00 0.00 86 1018.7
20190919003019 16 0.0 0.0 0.00 0.00 0.00 86 1018.7
20190919001519 16 0.0 4.8 0.00 0.00 0.00 85 1018.7
20190919000019 16 0.0 0.0 0.00 0.00 0.00 84 1018.6
20190918234525 16 0.0 1.6 0.00 0.00 0.00 84 1018.6
20190918233019 17 0.0 0.0 0.00 0.00 0.00 83 1018.8
20190918231520 17 0.0 6.4 0.00 0.00 0.00 82 1018.8
20190918230019 17 0.0 6.4 0.00 0.00 0.00 82 1018.6
20190918224519 17 0.0 6.4 0.00 0.00 0.00 81 1018.6
20190918223018 17 180 1.6 8.0 0.00 0.00 0.00 81 1018.4
20190918221518 18 180 1.6 8.0 0.00 0.00 0.00 81 1018.4
20190918220018 18 0.0 11.3 0.00 0.00 0.00 80 1018.3
20190918214518 18 180 1.6 9.7 0.00 0.00 0.00 79 1018.2
20190918213018 18 180 4.8 14.5 0.00 0.00 0.00 79 1018.2
20190918211518 19 180 4.8 11.3 0.00 0.00 0.00 78 1018.0
20190918210018 19 180 6.4 14.5 0.00 0.00 0.00 77 1017.9
20190918204518 20 180 4.8 11.3 0.00 0.00 0.00 75 1017.9
20190918203020 20 180 4.8 12.9 0.00 0.00 0.00 74 1017.7
20190918201518 20 135 4.8 11.3 0.00 0.00 0.00 73 1017.7
20190918200018 21 180 3.2 8.0 0.00 0.00 0.00 72 1017.6
20190918194518 21 158 4.8 11.3 0.00 0.00 0.00 70 1017.5
20190918193019 21 158 4.8 9.7 0.00 0.00 0.00 68 1017.3
20190918191517 22 158 6.4 11.3 0.00 0.00 0.00 67 1017.1
20190918190018 22 158 3.2 11.3 0.00 0.00 0.00 65 1017.2
20190918184517 23 180 4.8 11.3 0.00 0.00 0.00 64 1017.0
20190918183022 23 180 4.8 12.9 0.00 0.00 0.00 62 1016.9
20190918181518 24 180 4.8 12.9 0.00 0.00 0.00 60 1016.9
20190918180018 25 180 4.8 16.1 0.00 0.00 0.00 58 1016.8
20190918174520 25 180 9.7 16.1 0.00 0.00 0.00 56 1016.7
20190918173017 26 180 6.4 16.1 0.00 0.00 0.00 55 1016.5
20190918171519 26 180 6.4 16.1 0.00 0.00 0.00 54 1016.5
20190918170028 26 158 4.8 16.1 0.00 0.00 0.00 54 1016.5
20190918164517 27 225 6.4 20.9 0.00 0.00 0.00 55 1016.3
20190918163017 27 180 6.4 17.7 0.00 0.00 0.00 56 1016.1
20190918161518 27 225 8.0 20.9 0.00 0.00 0.00 55 1016.0
20190918160018 27 270 6.4 22.5 0.00 0.00 0.00 55 1015.9
20190918154518 28 270 8.0 25.7 0.00 0.00 0.00 54 1015.7
20190918153018 28 225 9.7 24.1 0.00 0.00 0.00 54 1015.8
20190918151517 28 270 8.0 19.3 0.00 0.00 0.00 52 1015.8